Change the Weather History Date:

Tuesday, August 12, 2014

  Actual Average (KLVN) Record (KLVN)
Temperature  
Mean Temperature 66 °F -  
Max Temperature 79 °F 81 °F 93 °F (1996)
Min Temperature 52 °F 57 °F 44 °F (1982)
Growing Degree Days 16 (Base 50)    
Moisture  
Dew Point 53 °F    
Average Humidity 68    
Maximum Humidity 94    
Minimum Humidity 32    
Precipitation  
Precipitation 0.00 in - - ()
Sea Level Pressure  
Sea Level Pressure 30.03 in    
Wind  
Wind Speed 4 mph (NW)    
Max Wind Speed 17 mph    
Max Gust Speed 22 mph    
Visibility 7 miles    
Events Fog    
Averages and records for this station are not official NWS values.
T = Trace of Precipitation, MM = Missing Value Source: NWS Daily Summary

Daily Weather History Graph

Daily Weather History Graph

Search for Another Location

Airport or City:

Trip Planner

Search our weather history database for the weather conditions in past years. The results will help you decide how hot, cold, wet, or windy it might be!

Date:

Astronomy

Aug. 12, 2014 Rise Set
Actual Time 6:11 AM CDT 8:21 PM CDT
Civil Twilight 5:39 AM CDT 8:53 PM CDT
Nautical Twilight 4:59 AM CDT 9:32 PM CDT
Astronomical Twilight 4:16 AM CDT 10:16 PM CDT
Moon 9:20 PM CDT (8/12) 8:37 AM CDT (8/12)
Length of Visible Light 15h 14m
Length of Day
14h 10m
Waning Gibbous, 94% of the Moon is Illuminated
Aug 12
Waning Gibbous
Aug 17
Last Quarter
Aug 25
New
Sep 2
First Quarter
Sep 8
Full

Hourly Weather History & Observations

Time (CDT) Temp. Dew Point Humidity Pressure Visibility Wind Dir Wind Speed Gust Speed Precip Events Conditions
12:31 AM 57.9 °F 55.9 °F 93% 30.04 in 5.0 mi Calm Calm - N/A   Clear
12:51 AM 57.7 °F 55.9 °F 94% 30.04 in 7.0 mi Calm Calm - N/A   Clear
1:11 AM 58.1 °F 56.3 °F 94% 30.04 in 10.0 mi Calm Calm - N/A   Clear
1:31 AM 57.6 °F 55.8 °F 94% 30.04 in 7.0 mi Calm Calm - N/A   Clear
1:51 AM 56.7 °F 54.9 °F 94% 30.04 in 3.0 mi Calm Calm - N/A   Clear
2:11 AM 57.2 °F 55.4 °F 94% 30.04 in 0.8 mi Calm Calm - N/A   Mist
2:31 AM 56.7 °F 54.9 °F 94% 30.04 in 0.5 mi Calm Calm - N/A Fog Fog
2:51 AM 55.4 °F 53.6 °F 94% 30.03 in 1.2 mi Calm Calm - N/A   Mist
3:11 AM 55.4 °F 53.6 °F 94% 30.03 in 0.8 mi Calm Calm - N/A   Mist
3:31 AM 54.1 °F 52.5 °F 94% 30.03 in 1.8 mi Calm Calm - N/A   Mist
3:51 AM 54.5 °F 52.9 °F 94% 30.03 in 3.0 mi Calm Calm - N/A   Clear
4:31 AM 53.4 °F 51.8 °F 94% 30.03 in 0.8 mi Calm Calm - N/A   Mist
4:51 AM 52.9 °F 51.3 °F 94% 30.04 in 0.2 mi Calm Calm - N/A Fog Fog
5:11 AM 53.1 °F 51.4 °F 94% 30.04 in 1.0 mi Calm Calm - N/A   Mist
5:31 AM 52.9 °F 51.3 °F 94% 30.04 in 2.0 mi Calm Calm - N/A   Clear
6:11 AM 53.4 °F 51.8 °F 94% 30.05 in 0.5 mi Calm Calm - N/A Fog Fog
6:31 AM 53.6 °F 52.0 °F 94% 30.06 in 0.5 mi Calm Calm - N/A Fog Fog
6:51 AM 52.5 °F 50.9 °F 94% 30.05 in 0.2 mi Calm Calm - N/A Fog Fog
7:11 AM 54.1 °F 52.5 °F 94% 30.06 in 0.8 mi Calm Calm - N/A   Mostly Cloudy
7:31 AM 56.3 °F 54.5 °F 94% 30.06 in 2.5 mi Calm Calm - N/A   Scattered Clouds
7:52 AM 58.8 °F 57.2 °F 94% 30.06 in 5.0 mi West 3.5 mph - N/A   Mostly Cloudy
8:11 AM 60.4 °F 58.8 °F 94% 30.07 in 10.0 mi NW 5.8 mph - N/A   Scattered Clouds
8:31 AM 61.9 °F 60.3 °F 94% 30.07 in 10.0 mi NW 6.9 mph - N/A   Clear
8:51 AM 62.2 °F 60.6 °F 94% 30.07 in 10.0 mi NW 8.1 mph - N/A   Clear
9:11 AM 64.9 °F 60.3 °F 85% 30.07 in 10.0 mi NW 9.2 mph - N/A   Scattered Clouds
9:31 AM 67.3 °F 59.7 °F 77% 30.07 in 10.0 mi WNW 9.2 mph - N/A   Scattered Clouds
9:51 AM 68.9 °F 59.0 °F 71% 30.06 in 10.0 mi NW 9.2 mph - N/A   Scattered Clouds
10:11 AM 69.8 °F 56.3 °F 62% 30.06 in 10.0 mi NNW 11.5 mph - N/A   Clear
10:31 AM 71.4 °F 53.2 °F 53% 30.06 in 10.0 mi NNW 13.8 mph 19.6 mph N/A   Clear
10:51 AM 72.3 °F 52.3 °F 49% 30.06 in 10.0 mi NNW 12.7 mph 19.6 mph N/A   Clear
12:31 PM 75.4 °F 46.2 °F 35% 30.05 in 10.0 mi NNW 17.3 mph 21.9 mph N/A   Clear
12:51 PM 75.4 °F 47.3 °F 37% 30.04 in 10.0 mi North 10.4 mph - N/A   Scattered Clouds
1:11 PM 75.6 °F 46.2 °F 35% 30.04 in 10.0 mi NNW 13.8 mph 18.4 mph N/A   Scattered Clouds
1:31 PM 77.0 °F 45.9 °F 33% 30.03 in 10.0 mi NNW 13.8 mph 20.7 mph N/A   Scattered Clouds
1:51 PM 76.6 °F 46.6 °F 34% 30.03 in 10.0 mi NNW 15.0 mph - N/A   Scattered Clouds
2:11 PM 77.4 °F 46.6 °F 34% 30.03 in 10.0 mi NNW 13.8 mph 19.6 mph N/A   Scattered Clouds
2:31 PM 77.5 °F 45.5 °F 32% 30.03 in 10.0 mi North 6.9 mph - N/A   Scattered Clouds
2:51 PM 77.7 °F 46.4 °F 33% 30.03 in 10.0 mi NW 12.7 mph - N/A   Scattered Clouds
3:31 PM 78.6 °F 46.8 °F 32% 30.02 in 10.0 mi NNW 11.5 mph 19.6 mph N/A   Scattered Clouds
3:51 PM 79.0 °F 46.8 °F 32% 30.01 in 10.0 mi NW 9.2 mph - N/A   Scattered Clouds
4:11 PM 78.3 °F 48.2 °F 35% 30.01 in 10.0 mi NW 12.7 mph 16.1 mph N/A   Scattered Clouds
4:31 PM 78.1 °F 48.2 °F 35% 30.00 in 10.0 mi NNW 5.8 mph - N/A   Clear
4:51 PM 78.8 °F 48.0 °F 34% 30.00 in 10.0 mi NW 15.0 mph 18.4 mph N/A   Clear
5:11 PM 78.6 °F 46.9 °F 33% 30.00 in 10.0 mi WNW 12.7 mph - N/A   Clear
5:31 PM 78.4 °F 46.6 °F 32% 30.00 in 10.0 mi NW 13.8 mph - N/A   Clear
5:51 PM 78.3 °F 47.1 °F 33% 30.00 in 10.0 mi NW 10.4 mph 16.1 mph N/A   Clear
6:11 PM 77.9 °F 47.7 °F 34% 30.00 in 10.0 mi NW 8.1 mph - N/A   Clear
6:51 PM 77.0 °F 49.8 °F 38% 30.00 in 10.0 mi WNW 6.9 mph - N/A   Clear
7:11 PM 76.3 °F 50.5 °F 40% 30.00 in 10.0 mi NW 6.9 mph - N/A   Clear
7:31 PM 74.5 °F 53.2 °F 47% 30.00 in 10.0 mi Calm Calm - N/A   Clear
7:51 PM 72.3 °F 54.7 °F 54% 30.00 in 10.0 mi West 4.6 mph - N/A   Clear
8:11 PM 71.1 °F 54.7 °F 56% 30.00 in 10.0 mi West 3.5 mph - N/A   Clear
8:31 PM 69.4 °F 54.9 °F 60% 30.00 in 10.0 mi West 3.5 mph - N/A   Clear
8:51 PM 68.0 °F 55.2 °F 64% 30.01 in 10.0 mi West 3.5 mph - N/A   Clear
9:11 PM 67.1 °F 55.4 °F 66% 30.01 in 10.0 mi West 4.6 mph - N/A   Clear
9:51 PM 62.6 °F 56.5 °F 80% 30.02 in 10.0 mi Calm Calm - N/A   Clear
10:11 PM 62.8 °F 55.9 °F 78% 30.02 in 10.0 mi Calm Calm - N/A   Clear
10:31 PM 61.9 °F 55.6 °F 80% 30.02 in 10.0 mi Calm Calm - N/A   Clear
10:51 PM 61.3 °F 55.8 °F 82% 30.02 in 10.0 mi Calm Calm - N/A   Clear
11:11 PM 60.1 °F 55.0 °F 83% 30.03 in 10.0 mi Calm Calm - N/A   Clear
11:51 PM 59.4 °F 54.7 °F 84% 30.03 in 10.0 mi SSW 3.5 mph - N/A   Clear